KB1DML Weather Reports


Display with metric or nautical units.
time (UTC)temp
F
wind
direction
speed
MPH
gust
MPH
rain 1hr
in
rain 24hr
in
rain mn
in
humidity
%
barometer
mb
20240614082517 69 135 2.0 7.0 0.00 0.00 0.00 74 1009.7
20240614082036 69 225 1.0 4.0 0.00 0.00 0.00 74 1009.8
20240614081516 69 203 1.0 4.0 0.00 0.00 0.00 74 1009.8
20240614081016 69 135 1.0 3.0 0.00 0.00 0.00 74 1009.7
20240614080516 69 135 1.0 7.0 0.00 0.00 0.00 74 1009.7
20240614080016 69 135 1.0 4.0 0.00 0.00 0.00 73 1009.8
20240614075516 69 225 1.0 5.0 0.00 0.00 0.00 73 1009.8
20240614075016 69 158 1.0 4.0 0.00 0.00 0.00 73 1009.8
20240614074517 69 135 1.0 6.0 0.00 0.00 0.00 73 1009.9
20240614074016 69 45 1.0 4.0 0.00 0.00 0.00 73 1009.8
20240614073516 69 315 1.0 4.0 0.00 0.00 0.00 73 1009.8
20240614073016 69 315 1.0 5.0 0.00 0.00 0.00 73 1009.9
20240614072516 69 45 2.0 10.0 0.00 0.00 0.00 73 1009.8
20240614072016 69 135 1.0 5.0 0.00 0.00 0.00 72 1009.9
20240614071516 69 135 1.0 9.0 0.00 0.00 0.00 72 1009.9
20240614071016 70 225 2.0 7.0 0.00 0.00 0.00 72 1009.9
20240614070516 70 135 2.0 10.0 0.00 0.00 0.00 72 1010.0
20240614070017 70 135 2.0 10.0 0.00 0.00 0.00 72 1010.0
20240614065516 70 203 1.0 7.0 0.00 0.00 0.00 72 1010.0
20240614065016 70 225 2.0 5.0 0.00 0.00 0.00 71 1010.0
20240614064516 70 135 1.0 6.0 0.00 0.00 0.00 71 1010.1
20240614064016 70 203 2.0 7.0 0.00 0.00 0.00 71 1010.1
20240614063557 70 135 2.0 4.0 0.00 0.00 0.00 70 1010.1
20240614063016 70 203 1.0 5.0 0.00 0.00 0.00 70 1010.2
20240614062516 70 158 1.0 4.0 0.00 0.00 0.00 70 1010.2
20240614062017 70 135 2.0 7.0 0.00 0.00 0.00 70 1010.3
20240614061516 70 135 1.0 5.0 0.00 0.00 0.00 69 1010.4
20240614061016 70 203 1.0 4.0 0.00 0.00 0.00 69 1010.5
20240614060516 71 135 1.0 4.0 0.00 0.00 0.00 68 1010.6
20240614060016 71 225 1.0 3.0 0.00 0.00 0.00 68 1010.8
20240614055516 71 203 1.0 3.0 0.00 0.00 0.00 68 1010.9
20240614055016 71 135 1.0 5.0 0.00 0.00 0.00 67 1010.9
20240614054517 71 225 1.0 4.0 0.00 0.00 0.00 67 1010.9
20240614054016 71 135 1.0 6.0 0.00 0.00 0.00 67 1011.0
20240614053516 71 135 1.0 4.0 0.00 0.00 0.00 66 1011.1
20240614053016 71 225 1.0 5.0 0.00 0.00 0.00 65 1011.1
20240614052556 71 135 2.0 7.0 0.00 0.00 0.00 65 1011.2
20240614052016 72 135 1.0 5.0 0.00 0.00 0.00 64 1011.2
20240614051516 72 90 1.0 6.0 0.00 0.00 0.00 64 1011.2
20240614051017 72 90 1.0 2.0 0.00 0.00 0.00 63 1011.2
20240614050516 72 0.0 2.0 0.00 0.00 0.00 63 1011.2
20240614050016 72 135 1.0 6.0 0.00 0.00 0.00 63 1011.2
20240614045536 72 180 1.0 6.0 0.00 0.00 0.00 62 1011.2
20240614045016 72 225 1.0 3.0 0.00 0.00 0.00 62 1011.2
20240614044516 72 158 1.0 6.0 0.00 0.00 0.00 62 1011.2
20240614044016 73 203 1.0 3.0 0.00 0.00 0.00 62 1011.3
20240614043516 73 225 1.0 3.0 0.00 0.00 0.00 61 1011.4
20240614043036 73 225 1.0 2.0 0.00 0.00 0.00 61 1011.5
20240614042516 73 203 1.0 3.0 0.00 0.00 0.00 61 1011.6
20240614042016 73 225 1.0 5.0 0.00 0.00 0.00 61 1011.6
20240614041556 73 225 1.0 7.0 0.00 0.00 0.00 60 1011.6
20240614041016 73 45 1.0 4.0 0.00 0.00 0.00 60 1011.6
20240614040516 73 225 1.0 6.0 0.00 0.00 0.00 60 1011.5
20240614040017 73 225 1.0 4.0 0.00 0.00 0.00 60 1011.7
20240614035516 73 225 2.0 6.0 0.00 0.00 0.00 60 1011.6
20240614035016 74 225 1.0 4.0 0.00 0.00 0.00 60 1011.6
20240614034516 74 225 1.0 4.0 0.00 0.00 0.00 60 1011.6
20240614034016 74 225 2.0 5.0 0.00 0.00 0.00 60 1011.5
20240614033517 74 135 2.0 9.0 0.00 0.00 0.00 60 1011.5
20240614033016 74 225 1.0 6.0 0.00 0.00 0.00 60 1011.6
20240614032516 74 203 2.0 8.0 0.00 0.00 0.00 60 1011.6
20240614032016 74 203 2.0 8.0 0.00 0.00 0.00 60 1011.6
20240614031637 74 225 2.0 9.0 0.00 0.00 0.00 60 1011.6
20240614031016 74 203 2.0 9.0 0.00 0.00 0.00 59 1011.6
20240614030516 75 225 1.0 5.0 0.00 0.00 0.00 59 1011.6
20240614030037 75 203 2.0 7.0 0.00 0.00 0.00 59 1011.6
20240614025516 75 203 2.0 6.0 0.00 0.00 0.00 59 1011.6
20240614025016 75 135 2.0 10.0 0.00 0.00 0.00 59 1011.6
20240614024516 75 180 2.0 6.0 0.00 0.00 0.00 59 1011.7
20240614024036 75 225 2.0 6.0 0.00 0.00 0.00 59 1011.6
20240614023516 75 135 2.0 7.0 0.00 0.00 0.00 59 1011.7
20240614023016 76 135 2.0 6.0 0.00 0.00 0.00 59 1011.8
20240614022557 76 135 2.0 7.0 0.00 0.00 0.00 59 1012.0
20240614022017 76 135 1.0 4.0 0.00 0.00 0.00 59 1012.1
20240614021516 76 158 1.0 6.0 0.00 0.00 0.00 59 1012.2
20240614021016 76 135 1.0 5.0 0.00 0.00 0.00 59 1012.2
20240614020516 76 135 2.0 7.0 0.00 0.00 0.00 58 1012.2
20240614020017 77 158 2.0 9.0 0.00 0.00 0.00 58 1012.2
20240614015516 77 225 2.0 5.0 0.00 0.00 0.00 58 1012.1
20240614015016 77 158 2.0 6.0 0.00 0.00 0.00 58 1012.1
20240614014516 77 135 2.0 5.0 0.00 0.00 0.00 58 1012.1
20240614014016 77 203 2.0 12.0 0.00 0.00 0.00 57 1012.2
20240614013516 78 158 1.0 3.0 0.00 0.00 0.00 56 1012.2
20240614013016 78 225 2.0 9.0 0.00 0.00 0.00 56 1012.3
20240614012516 78 203 2.0 8.0 0.00 0.00 0.00 56 1012.4
20240614012016 78 135 2.0 9.0 0.00 0.00 0.00 56 1012.3
20240614011516 78 180 2.0 8.0 0.00 0.00 0.00 56 1012.3
20240614011016 78 180 2.0 6.0 0.00 0.00 0.00 56 1012.2
20240614010516 79 225 2.0 5.0 0.00 0.00 0.00 56 1012.2
20240614010016 79 158 2.0 6.0 0.00 0.00 0.00 56 1012.2
20240614005517 79 135 2.0 10.0 0.00 0.00 0.00 56 1012.0
20240614005016 79 135 2.0 9.0 0.00 0.00 0.00 56 1012.0
20240614004516 79 158 2.0 11.0 0.00 0.00 0.00 56 1011.9
20240614004016 79 135 3.0 12.0 0.00 0.00 0.00 55 1011.9
20240614003516 80 135 3.0 9.0 0.00 0.00 0.00 55 1011.9
20240614003017 80 225 2.0 14.0 0.00 0.00 0.00 55 1012.0
20240614002516 80 135 3.0 10.0 0.00 0.00 0.00 55 1011.9
20240614002016 80 203 2.0 9.0 0.00 0.00 0.00 55 1011.9
20240614001516 80 225 2.0 9.0 0.00 0.00 0.00 55 1011.9
20240614001016 80 225 3.0 8.0 0.00 0.00 0.00 55 1012.0
20240614000516 81 135 3.0 10.0 0.00 0.00 0.00 55 1011.9
20240614000036 81 180 2.0 6.0 0.00 0.00 0.00 55 1011.9
20240613235516 81 203 2.0 9.0 0.00 0.00 0.00 54 1011.8
20240613235017 81 203 3.0 10.0 0.00 0.00 0.00 54 1011.8
20240613234516 81 180 3.0 9.0 0.00 0.00 0.00 54 1011.9
20240613234016 81 225 3.0 11.0 0.00 0.00 0.00 54 1012.0
20240613233516 81 180 2.0 11.0 0.00 0.00 0.00 53 1012.0
20240613233016 81 135 2.0 8.0 0.00 0.00 0.00 54 1012.0
20240613232536 82 158 4.0 12.0 0.00 0.00 0.00 54 1011.8
20240613232017 82 135 3.0 10.0 0.00 0.00 0.00 54 1011.7
20240613231536 82 135 3.0 9.0 0.00 0.00 0.00 54 1011.7
20240613231016 82 135 4.0 10.0 0.00 0.00 0.00 54 1011.7
20240613230516 82 158 4.0 13.0 0.00 0.00 0.00 54 1011.6
20240613230016 82 158 6.0 14.0 0.00 0.00 0.00 53 1011.4
20240613225516 83 158 4.0 9.0 0.00 0.00 0.00 53 1011.3
20240613225016 83 135 5.0 12.0 0.00 0.00 0.00 52 1011.4
20240613224516 83 158 4.0 12.0 0.00 0.00 0.00 52 1011.3
20240613224016 83 158 4.0 18.0 0.00 0.00 0.00 52 1011.4
20240613223537 83 135 4.0 10.0 0.00 0.00 0.00 51 1011.2
20240613223016 83 135 4.0 16.0 0.00 0.00 0.00 51 1011.3
20240613222516 84 135 5.0 13.0 0.00 0.00 0.00 50 1011.3
20240613222016 84 135 3.0 7.0 0.00 0.00 0.00 51 1011.4
20240613221516 84 158 5.0 15.0 0.00 0.00 0.00 51 1011.4
20240613221016 84 135 3.0 13.0 0.00 0.00 0.00 51 1011.4
20240613220536 84 135 3.0 11.0 0.00 0.00 0.00 49 1011.4
20240613220016 84 158 3.0 9.0 0.00 0.00 0.00 50 1011.5
20240613215517 84 135 4.0 14.0 0.00 0.00 0.00 50 1011.4
20240613215016 84 135 5.0 13.0 0.00 0.00 0.00 49 1011.3
20240613214536 85 158 4.0 11.0 0.00 0.00 0.00 47 1011.3
20240613214016 85 135 4.0 12.0 0.00 0.00 0.00 47 1011.3
20240613213536 85 135 4.0 13.0 0.00 0.00 0.00 46 1011.3
20240613213016 85 135 3.0 11.0 0.00 0.00 0.00 47 1011.3
20240613212537 86 158 5.0 17.0 0.00 0.00 0.00 46 1011.2
20240613212016 86 158 4.0 15.0 0.00 0.00 0.00 46 1011.3
20240613211516 86 135 3.0 11.0 0.00 0.00 0.00 45 1011.3
20240613211018 86 225 2.0 7.0 0.00 0.00 0.00 43 1011.2
20240613210515 86 135 4.0 10.0 0.00 0.00 0.00 43 1011.3
20240613210016 86 315 1.0 6.0 0.00 0.00 0.00 39 1011.3
20240613205516 86 315 3.0 14.0 0.00 0.00 0.00 38 1011.5
20240613205015 86 135 2.0 6.0 0.00 0.00 0.00 38 1011.4
20240613204516 86 203 2.0 10.0 0.00 0.00 0.00 38 1011.5
20240613204036 86 203 2.0 5.0 0.00 0.00 0.00 37 1011.4
20240613203517 86 135 4.0 12.0 0.00 0.00 0.00 37 1011.4
20240613203016 86 135 2.0 7.0 0.00 0.00 0.00 37 1011.5
20240613202515 86 135 3.0 11.0 0.00 0.00 0.00 36 1011.5
20240613202057 86 225 2.0 9.0 0.00 0.00 0.00 36 1011.5
20240613201515 86 203 2.0 4.0 0.00 0.00 0.00 36 1011.6
20240613201017 86 225 1.0 5.0 0.00 0.00 0.00 37 1011.6
20240613200516 86 225 1.0 5.0 0.00 0.00 0.00 37 1011.6
20240613200016 86 203 2.0 6.0 0.00 0.00 0.00 36 1011.8
20240613195515 86 225 3.0 14.0 0.00 0.00 0.00 36 1011.8
20240613195015 87 135 2.0 7.0 0.00 0.00 0.00 37 1011.9
20240613194536 87 225 2.0 8.0 0.00 0.00 0.00 37 1012.1
20240613194015 87 158 4.0 10.0 0.00 0.00 0.00 37 1012.1
20240613193535 87 270 2.0 4.0 0.00 0.00 0.00 37 1012.3
20240613193036 87 135 2.0 6.0 0.00 0.00 0.00 37 1012.3
20240613192515 87 203 2.0 8.0 0.00 0.00 0.00 37 1012.3
20240613192016 87 203 2.0 9.0 0.00 0.00 0.00 37 1012.3
20240613191515 88 135 1.0 8.0 0.00 0.00 0.00 36 1012.2
20240613191015 88 0.0 0.0 0.00 0.00 0.00 36 1012.2
20240613190516 88 0.0 0.0 0.00 0.00 0.00 36 1012.2
20240613190016 88 0.0 0.0 0.00 0.00 0.00 36 1012.3
20240613185516 88 0.0 0.0 0.00 0.00 0.00 36 1012.3
20240613185018 88 0.0 0.0 0.00 0.00 0.00 36 1012.2
20240613184515 89 0.0 0.0 0.00 0.00 0.00 35 1012.3
20240613184015 89 0.0 0.0 0.00 0.00 0.00 35 1012.3
20240613183536 89 0.0 0.0 0.00 0.00 0.00 35 1012.3
20240613183015 89 0.0 0.0 0.00 0.00 0.00 34 1012.5
20240613182516 89 0.0 0.0 0.00 0.00 0.00 34 1012.4
20240613182015 89 0.0 0.0 0.00 0.00 0.00 33 1012.5
20240613181516 89 0.0 0.0 0.00 0.00 0.00 33 1012.7
20240613181036 89 203 1.0 3.0 0.00 0.00 0.00 34 1012.8
20240613180515 89 203 2.0 7.0 0.00 0.00 0.00 34 1012.8
20240613180016 90 203 1.0 4.0 0.00 0.00 0.00 33 1012.8
20240613175515 90 225 1.0 5.0 0.00 0.00 0.00 32 1012.8
20240613175037 91 203 1.0 4.0 0.00 0.00 0.00 32 1012.9
20240613174515 90 0.0 2.0 0.00 0.00 0.00 33 1012.9
20240613174015 90 135 3.0 11.0 0.00 0.00 0.00 34 1012.8
20240613173515 90 225 3.0 12.0 0.00 0.00 0.00 33 1013.0
20240613173015 89 203 1.0 4.0 0.00 0.00 0.00 33 1013.0
20240613172516 89 225 2.0 8.0 0.00 0.00 0.00 33 1012.9
20240613172015 89 203 1.0 4.0 0.00 0.00 0.00 32 1012.9
20240613171516 89 203 2.0 4.0 0.00 0.00 0.00 32 1013.0
20240613171015 89 225 2.0 9.0 0.00 0.00 0.00 33 1013.1
20240613170515 89 270 1.0 5.0 0.00 0.00 0.00 32 1013.2
20240613170036 89 180 1.0 4.0 0.00 0.00 0.00 33 1013.3
20240613165536 89 225 2.0 8.0 0.00 0.00 0.00 32 1013.3
20240613165055 89 135 2.0 6.0 0.00 0.00 0.00 33 1013.3
20240613164515 89 203 1.0 4.0 0.00 0.00 0.00 33 1013.4
20240613164018 88 135 2.0 9.0 0.00 0.00 0.00 35 1013.5
20240613163515 88 203 2.0 5.0 0.00 0.00 0.00 36 1013.6
20240613163015 88 90 2.0 4.0 0.00 0.00 0.00 36 1013.5
20240613162515 88 225 2.0 5.0 0.00 0.00 0.00 35 1013.6
20240613162015 88 203 2.0 5.0 0.00 0.00 0.00 35 1013.6
20240613161516 87 225 2.0 4.0 0.00 0.00 0.00 36 1013.6
20240613161018 87 225 2.0 8.0 0.00 0.00 0.00 37 1013.7
20240613160515 86 135 2.0 8.0 0.00 0.00 0.00 37 1013.7
20240613160016 86 225 2.0 8.0 0.00 0.00 0.00 36 1013.9
20240613155515 86 225 2.0 5.0 0.00 0.00 0.00 36 1013.8
20240613155015 86 225 2.0 4.0 0.00 0.00 0.00 37 1013.8
20240613154535 86 203 1.0 5.0 0.00 0.00 0.00 38 1014.0
20240613154017 85 270 1.0 4.0 0.00 0.00 0.00 38 1014.0
20240613153515 86 225 2.0 6.0 0.00 0.00 0.00 38 1014.0
20240613153015 85 225 1.0 4.0 0.00 0.00 0.00 38 1014.0
20240613152516 85 225 2.0 6.0 0.00 0.00 0.00 37 1014.1
20240613152035 85 203 1.0 5.0 0.00 0.00 0.00 37 1014.1
20240613151515 84 180 2.0 7.0 0.00 0.00 0.00 38 1014.1
20240613151035 84 225 1.0 6.0 0.00 0.00 0.00 40 1014.1
20240613150516 84 225 2.0 5.0 0.00 0.00 0.00 39 1014.1
20240613150015 84 203 1.0 3.0 0.00 0.00 0.00 39 1014.1
20240613145515 83 225 1.0 3.0 0.00 0.00 0.00 41 1014.1
20240613145015 82 203 1.0 4.0 0.00 0.00 0.00 42 1014.1
20240613144515 82 225 1.0 4.0 0.00 0.00 0.00 42 1014.0
20240613144015 81 225 2.0 7.0 0.00 0.00 0.00 43 1014.1
20240613143515 81 203 2.0 8.0 0.00 0.00 0.00 44 1014.1
20240613143015 81 225 2.0 11.0 0.00 0.00 0.00 43 1014.2
20240613142515 81 225 1.0 5.0 0.00 0.00 0.00 44 1014.3
20240613142015 80 180 1.0 3.0 0.00 0.00 0.00 44 1014.3
20240613141515 80 225 2.0 7.0 0.00 0.00 0.00 46 1014.2
20240613141016 79 225 1.0 4.0 0.00 0.00 0.00 46 1014.4
20240613140515 79 203 1.0 4.0 0.00 0.00 0.00 46 1014.4
20240613140015 79 225 2.0 9.0 0.00 0.00 0.00 47 1014.4
20240613135515 78 203 1.0 3.0 0.00 0.00 0.00 48 1014.5
20240613135015 78 225 1.0 3.0 0.00 0.00 0.00 49 1014.5
20240613134515 77 225 2.0 9.0 0.00 0.00 0.00 50 1014.6
20240613134015 77 225 2.0 6.0 0.00 0.00 0.00 50 1014.5
20240613133515 77 225 2.0 4.0 0.00 0.00 0.00 50 1014.5
20240613133015 76 203 2.0 5.0 0.00 0.00 0.00 50 1014.5
20240613132516 76 225 2.0 7.0 0.00 0.00 0.00 50 1014.5
20240613132015 76 225 2.0 5.0 0.00 0.00 0.00 50 1014.7
20240613131515 75 203 1.0 4.0 0.00 0.00 0.00 51 1014.6
20240613131016 75 225 1.0 4.0 0.00 0.00 0.00 52 1014.7
20240613130515 75 225 2.0 8.0 0.00 0.00 0.00 52 1014.6
20240613130015 74 203 1.0 7.0 0.00 0.00 0.00 52 1014.6
20240613125515 74 225 1.0 3.0 0.00 0.00 0.00 54 1014.6
20240613125035 73 45 1.0 3.0 0.00 0.00 0.00 55 1014.7
20240613124515 73 225 1.0 4.0 0.00 0.00 0.00 56 1014.8
20240613124015 73 225 1.0 3.0 0.00 0.00 0.00 56 1014.7
20240613123515 72 203 1.0 3.0 0.00 0.00 0.00 57 1014.7
20240613123015 72 225 1.0 4.0 0.00 0.00 0.00 58 1014.7
20240613122515 72 225 1.0 4.0 0.00 0.00 0.00 58 1014.7
20240613122015 71 203 1.0 3.0 0.00 0.00 0.00 59 1014.7
20240613121555 71 225 1.0 4.0 0.00 0.00 0.00 60 1014.6
20240613121017 70 225 1.0 3.0 0.00 0.00 0.00 62 1014.6
20240613120517 70 225 1.0 4.0 0.00 0.00 0.00 62 1014.6
20240613120017 69 225 1.0 3.0 0.00 0.00 0.00 64 1014.5
20240613115537 69 225 1.0 3.0 0.00 0.00 0.00 65 1014.4
20240613115017 68 203 1.0 2.0 0.00 0.00 0.00 66 1014.5
20240613114537 68 203 1.0 6.0 0.00 0.00 0.00 67 1014.6
20240613114016 67 45 1.0 2.0 0.00 0.00 0.00 68 1014.6
20240613113519 67 270 1.0 4.0 0.00 0.00 0.00 68 1014.6
20240613113017 66 248 1.0 7.0 0.00 0.00 0.00 69 1014.6
20240613112517 66 315 1.0 4.0 0.00 0.00 0.00 70 1014.7
20240613112017 65 225 1.0 2.0 0.00 0.00 0.00 71 1014.8
20240613111517 65 225 1.0 5.0 0.00 0.00 0.00 71 1014.8
20240613111016 65 225 1.0 3.0 0.00 0.00 0.00 71 1014.7
20240613110517 64 225 1.0 2.0 0.00 0.00 0.00 73 1014.7
20240613110017 64 225 1.0 2.0 0.00 0.00 0.00 73 1014.7
20240613105517 64 0 1.0 2.0 0.00 0.00 0.00 74 1014.6
20240613105038 63 203 1.0 2.0 0.00 0.00 0.00 74 1014.6
20240613104517 63 225 1.0 3.0 0.00 0.00 0.00 75 1014.5
20240613104016 63 225 1.0 3.0 0.00 0.00 0.00 76 1014.5
20240613103517 63 203 1.0 2.0 0.00 0.00 0.00 76 1014.4
20240613103037 63 180 1.0 2.0 0.00 0.00 0.00 76 1014.4
20240613102516 62 135 1.0 3.0 0.00 0.00 0.00 77 1014.3
20240613102017 62 225 1.0 3.0 0.00 0.00 0.00 77 1014.4
20240613101517 62 225 1.0 2.0 0.00 0.00 0.00 77 1014.4
20240613101017 62 45 1.0 2.0 0.00 0.00 0.00 77 1014.4
20240613100517 62 203 1.0 2.0 0.00 0.00 0.00 77 1014.4
20240613100017 62 45 1.0 2.0 0.00 0.00 0.00 77 1014.3
20240613095517 62 203 1.0 3.0 0.00 0.00 0.00 77 1014.2
20240613095017 62 203 1.0 2.0 0.00 0.00 0.00 77 1014.2
20240613094517 62 203 1.0 2.0 0.00 0.00 0.00 77 1014.1
20240613094016 62 0.0 2.0 0.00 0.00 0.00 77 1014.0
20240613093518 62 90 1.0 3.0 0.00 0.00 0.00 76 1014.1
20240613093016 62 0.0 2.0 0.00 0.00 0.00 76 1014.0
20240613092517 63 0.0 2.0 0.00 0.00 0.00 76 1013.9
20240613092016 63 0.0 1.0 0.00 0.00 0.00 76 1013.9
20240613091557 63 0.0 1.0 0.00 0.00 0.00 76 1013.8
20240613091016 63 0.0 1.0 0.00 0.00 0.00 75 1013.8
20240613090516 63 0.0 1.0 0.00 0.00 0.00 75 1013.7
20240613090017 63 0.0 1.0 0.00 0.00 0.00 75 1013.6
20240613085516 63 0.0 2.0 0.00 0.00 0.00 75 1013.5
20240613085037 63 0.0 2.0 0.00 0.00 0.00 75 1013.5
20240613084537 63 0.0 2.0 0.00 0.00 0.00 75 1013.5
20240613084016 63 0.0 2.0 0.00 0.00 0.00 75 1013.5
20240613083517 63 0.0 2.0 0.00 0.00 0.00 75 1013.5
20240613083017 63 0.0 2.0 0.00 0.00 0.00 75 1013.4